Погода Айон Остров

Погода Айон Остров : погода сейчас, прогноз погоды и архив. Всё, что Вы хотите узнать о погоде Айон Остров!

Поиск расширенной информации на нашем сайте:

Полезная информация: Заказ китайской еды wok доставка китайской еды.

Другие новости

Новости СМИ2

Главная страница сайта

Новости сайта

02.10.2013

Напоминаем, что на нашем новом сайте вы можете получить высокодетализированные прогнозы погоды по пунктам России, СНГ и мира (включающие важные для авиации метеовеличины, такие как направление и скорость ветра, видимость, явления погоды, количество и форма облачности, нижняя и верхняя граница облачности), а также ознакомиться с разнообразными материалами по авиационной метеорологии и подборкой полезных ссылок на эту тему.

Сайт Метеоцентр.Азия посвящён разработке технологий оптимизации авиаметеорологического обслуживания, включая проектирование и перспективное создание нескольких автоматизированных авиаметеорологических систем:
- система выпуска высокодетальных прогностических карт явлений погоды для нижнего воздушного пространства по России и ближнему зарубежью;
- система верификации прогнозов TAF (выпускаемых синоптиками официальных АМСГ РФ и ближнего зарубежья) и AUTOTAF (выпускаемых сайтом Метеоцентр.Азия) - выявление ошибок, онлайн-сопоставление с фактической погодой METAR, автоматическое внесение коррективов в прогнозы при резком отклонении фактической погоды от прогноза, подсчёт оправдываемости прогнозов по элементам и в целом;
- система обработки, анализа и отображения авиаметеорологической информации для применения провайдерами метеорологической информации.

Рекомендуем: Нарколог на дом выезд врача врач нарколог на дом.

Погода Айон Остров - сегодня

Время (UTC), дата Ветер
(°,м/с) 
Видим.   Явления Облачность Т
(°С)
Тd
(°С)
f(%) Тe
(°С)
Pmin
(гПа)
dP
(гПа)
Po
(мм)
O2
(г/м3)
Тmin Tmax R s Состояние
почвы
03 25.02.17 070 (В) 7-10{11}  20000 м  позёмок  10/0 средняя 
[Ac und]
-21.5 -23.3 85 -30  1018.3  762  335           
06 25.02.17 070 (В) 7-10{10}  20000 м  позёмок  10/0 средняя 
[Ac und]
-21 -22.9 85 -29  1018.1  -0.2  762  334           
09 25.02.17 060 (СВ) 8-12{12}  10 км  позёмок  10/0 средняя 
[Ac und]
-20.8 -22.5 86 -30  1017.3  -0.8  762  334    -20.8       
12 25.02.17 070 (В) 9-12{13}  10 км  позёмок  10/0 средняя 
[Ac und]
-21.5 -23.3 85 -31  1016.2  -1.1  761  334           
15 25.02.17 060 (СВ) 9-13{14}  4000 м  метель  10/0 средняя 
[Ac und]
-22.8 -24.7 84 -33  1013.3  -2.9  759  335           
18 25.02.17 060 (СВ) 11-16{17}  2000 м  метель  10/0 средняя 
[Ac und]
-22.6 -24.6 84 -33  1010.3  -3  756  334           
21 25.02.17 070 (В) 12-17{19}  2000 м  слаб. снег  10/0 средняя 
[As op]
-22.9 -25 83 -34  1009.1  -1.2  755  334  -23.1    0.3  неравномерный
сухой снег
100% 
00 26.02.17 070 (В) 12-17{18}  2000 м  метель{снег}  10/0 средняя 
[As trans]
-22.4 -24.4 84 -34  1009.1  755  333           
03 26.02.17 070 (В) 14-20{21}  1000 м  слаб. снег  10/0 средняя 
[As op]
-21.3 -23.1 85 -33  1008.6  -0.5  755  332           
06 26.02.17 060 (СВ) 10-14{20}  1000 м  слаб. снег  10/0 средняя 
[As op]
-22.3 -24.2 85 -32  1010.3  1.7  756  334           
09 26.02.17 060 (СВ) 9-12{15}  4000 м  метель{снег}  10/0 средняя 
[As trans]
-22 -24 84 -32  1011.7  1.4  757  334    -21.3  0.6     
12 26.02.17 050 (СВ) 7-10{13}  10 км  позёмок{снег}  6/0 средняя 
[Ac trans]
-22.4 -24.4 84 -31  1013.5  1.8  759  335           
15 26.02.17 070 (В) 8-9{11}  4000 м  слаб. снег  10/0 средняя 
[As op]
-20.9 -22.8 85 -30  1014.8  1.3  760  333           
18 26.02.17 060 (СВ) 8-10{10}  4000 м  слаб. снег  10/0 средняя 
[As op]
-20.9 -22.8 85 -30  1016.6  1.8  761  334           
21 26.02.17 060 (СВ) 6-8{10}  4000 м  слаб. снег  10/0 средняя 
[As op]
-21.2 -23 85 -29  1018.9  2.3  763  335  -22.6    неравномерный
сухой снег
100% 
00 27.02.17 060 (СВ) 7-9{10}  10 км  позёмок{снег}  10/0 средняя 
[As trans]
-21.4 -23.3 85 -30  1021  2.1  764  336           
03 27.02.17 060 (СВ) 6-8{10}  20000 м  позёмок  10/0 средняя, верхняя 
[Ac trans|Ci fib]
-22.9 -25 83 -31  1022.4  1.4  765  338           
06 27.02.17 040 (СВ) 3-5{08}  20000 м    10/0 средняя, верхняя 
[Ac trans|Ci fib]
-24.2 -26.4 82 -29  1024.8  2.4  767  341           
09 27.02.17 340 (С) 2-3{05}  20000 м    6/0 средняя 
[Ac trans]
-26.4 -29 79 -30  1027.2  2.4  769  345    -21  0.2     
12 27.02.17 340 (С) 2-2{03}  20000 м    10/0 средняя 
[Ac und]
-25.4 -27.7 81 -29  1030.1  2.9  771  344           
15 27.02.17 260 (З) 2-3{03}  4000 м  слаб. снег  10/0 средняя 
[As op]
-26 -28.4 80 -29  1032.4  2.3  773  346           
18 27.02.17 270 (З) 2-3{03}  20000 м  {снег}  6/0 средняя 
[Ac trans]
-26.1 -28.5 80 -29  1034.7  2.3  775  347           
21 27.02.17 250 (З) 3-4{04}  20000 м    6/0 средняя 
[Ac trans]
-26.5 -29 79 -32  1037.6  2.9  777  349  -26.7    0.2  10  неравномерный
сухой снег
100% 
00 28.02.17 230 (ЮЗ) 4-5{05}  20000 м    8/0 средняя 
[Ac trans]
-24.9 -27.2 81 -31  1040.7  3.1  779  347           
03 28.02.17 160 (Ю) 6-7{07}  20000 м  позёмок  6/0 средняя, верхняя 
[Ac trans|Ci fib]
-27.5 -30.1 79 -36  1041.9  1.2  780  351           
Время (UTC), дата Ветер
(°,м/с) 
Видим.   Явления Облачность Т
(°С)
Тd
(°С)
f(%) Тe
(°С)
Pmin
(гПа)
dP
(гПа)
Po
(мм)
O2
(г/м3)
Тmin Tmax R s Состояние
почвы

Для получения пояснительной информации подведите курсор к названию столбца.

ПОГОДА Айон Остров - архив

Всё, что Вы хотите узнать о погоде Айон Остров - удобно и подробно!

Выберите нужную дату (начиная с 1 января 2015* года) и нажмите кнопку "Найти".
Будут отображены архивные сводки погоды по пункту Айон Остров, начиная с указанной даты.


Отображать данные в формате CSV (для использования в таблицах Excel)


Внимание! Наш архив погоды предназначен исключительно для личного некоммерческого использования в познавательных целях. Если Вам необходимы официальные справки о состоянии погоды (для производственных, юридических, коммерческих и т.п. целей), обращайтесь в органы Росгидромета.

*Примечание: данная дата относится к архиву по метеостанциям СССР (Россия, СНГ, Балтия).
Архив по метеостанциям Зарубежной Европы и Азии (кроме Китая) хранится 10 дней, по другим регионам земного шара (Китай, Африка, Америка, Австралия, Океания) - 1 день.

Айон Остров - район местоположения метеостанции


Название, широта, долгота, высота метеостанции:
Айон Остров 69.8°ш. 168.7°д. 16 м над ур. моря [Российская Федерация]

Дополнительная информация

В oтличие oт бoльшинства пoгoдных сайтoв мы публикуем пoдрoбную метеoинфoрмацию в детальнoм прoфессиoнальнoм фoрмате.

Характеристики температуры и влажнoсти вoздуха измеряются на высoте 2 м в тени вдали oт зданий и деревьев.
Скoрoсть ветра измеряется на высoте 10 м (на урoвне рoста челoвека скoрoсть ветра ниже в 1.5-2 раза). Если метеoстанция нахoдится в гoрoде или в лесу, тo скoрoсть ветра занижена на 2-4 м/с пo сравнению с oткрытым местoм. Скoрoсть ветра над акватoриями крупных рек и oзёр, а также на вершинах хoлмoв на 2-5 м/с выше, чем в oбычных услoвиях.
Атмoсфернoе давление в разных тoчках местнoсти мoжет значительнo oтличаться oт давления на метеoстанции, в зависимoсти oт услoвий рельефа (при пoдъёме на 10 м давление пoнижается примернo на 1 мм рт.ст.).